Regional Weather Roundup
Issued by NWS Pendleton, OR

Home | Current Version | Previous Version | Text Only | Print | Product List | Glossary On
Versions: 1 2 3 4 5 6 7 8 9 10 11 12 13 14 15 16 17 18 19 20 21 22 23 24 25 26 27 28 29 30 31 32 33 34 35 36 37 38 39 40 41 42 43 44 45 46 47 48 49 50
000
ASUS46 KPDT 031504
RWRPDT
PENDLETON REGIONAL WEATHER ROUNDUP
NATIONAL WEATHER SERVICE PENDLETON OREGON
700 AM PST TUE MAR 3 2015

NOTE: FAIR INDICATES FEW OR NO CLOUDS BELOW 12,000 FEET WITH NO
SIGNIFICANT WEATHER AND/OR OBSTRUCTIONS TO VISIBILITY.

# INDICATES UNOFFICIAL STATION AND DATA

WAZ520-031610-
EAST SLOPES OF WASHINGTON CASCADES

CITY            SKY/WX      TMP DP  RH  WIND    PRES   REMARKS
#BULLFROG       N/A         24  22  92  NW3     N/A
#BUMPING DAM    N/A         21  N/A N/A W3      N/A
#CLE ELUM HS    N/A         26  22  85  CALM    30.13S
#CLE ELUM LAKE  N/A         26  14  60  CALM    30.20F
#CLIFFDEL 2NW   N/A         23  21  92  CALM    N/A
#EASTON DOT     N/A         27  26  96  CALM    N/A
#ELK HTS DOT    N/A         24  24  100 S1      N/A
#GLENWOOD       N/A         34  20  56  CALM    30.23S
#MANASTASH CYN  N/A         26  17  68  CALM    30.12S
#NELSON         N/A         24  22  92  CALM    30.26S
#NELSON 3SW     N/A         25  20  81  CALM    30.43S
#NILE           N/A         24  22  92  CALM    29.49S
#PEOH POINT     N/A         24   8  50  E3      N/A
#RONALD 2NW     N/A         28  18  66  N1      29.99F
#SNOWDEN        N/A         30  11  44  CALM    N/A
#SOUTH BLEWITT  N/A         23  19  84  CALM    N/A
#TEANAWAY 4NE   N/A         24  22  92  CALM    N/A
#TROUT LAKE 1NE N/A         29  26  88  CALM    30.24S
$$

WAZ521-031610-
SIMCOE HIGHLANDS

CITY            SKY/WX      TMP DP  RH  WIND    PRES   REMARKS
#BICKLETON HS   N/A         24   4  41  N6      N/A
#SATUS PASS DOT N/A         26  13  57  CALM    N/A
#CENTERVILLE 4W N/A         35  23  61  CALM    29.93R
#CENTERVILLE 1SWN/A         34  19  54  CALM    30.22R
#GOLDENDALE     N/A         36  14  40  E6      N/A
#GOLDENDALE 1NE N/A         36   8  30  E3      N/A
#GOLDENDALE 5WNWN/A         N/A N/A N/A N1      30.19R
#GOODNOE HILLS  N/A         36   6  28  NE6     N/A
#LYLE 6NE       N/A         37  16  42  E3      30.21S
$$

WAZ026-031610-
KITTITAS VALLEY

CITY            SKY/WX      TMP DP  RH  WIND    PRES   REMARKS
ELLENSBURG AP   PTCLDY      28  19  68  CALM    30.19S
#ELLENSBURG CWU N/A         27  22  81  CALM    30.19S
#ELLENSBURG 3NE N/A         26  20  78  NE1     30.19S
#ELLENSBURG 1E  N/A         25  21  84  CALM    N/A
#KITTITAS 4N    N/A         26  11  52  CALM    28.49R
#KITTITAS 3S    N/A         20  16  84  CALM    30.24S
#MANASTASH RDG  N/A         29  29  100 E1      N/A
#ROCKY CYN DOT  N/A         28  20  71  W2      N/A
#RYEGRASS DOT   N/A         26  10  50  E8      N/A
#THORP 6N       N/A         30  15  53  CALM    30.26R
$$

WAZ027-031610-
YAKIMA VALLEY

CITY            SKY/WX      TMP DP  RH  WIND    PRES   REMARKS
SUNNYSIDE AP    PTCLDY      32  11  41  S6      30.24R
YAKIMA AIRPORT  CLOUDY      38  15  38  CALM    30.23S
YAKIMA-VAGABOND PTCLDY      31  14  49  N7      30.21S
#DONALD 2NE     N/A         35  -8  15  CALM    29.08R
#MABTON         N/A         31  16  53  S3      30.25R
#NACHES 2SW     N/A         30  23  75  CALM    30.19S
#PARKER DOT     N/A         38  10  31  CALM    N/A
#SELAH 8E       N/A         31   9  39  CALM    N/A
#TERRACE HTS    N/A         34  14  43  CALM    30.22R
#TOPPENISH      N/A         39  10  30  CALM    30.18R
#I82 S UMTANUM RN/A         31  12  45  NE9     N/A
#UNION GAP DOT  N/A         38  10  31  CALM    N/A
#WAPATO 4NE     N/A         35  -8  15  CALM    29.08R
#WEST VALLEY    N/A         32  25  75  CALM    30.25R
#W YAKIMA       N/A         34  18  51  CALM    30.26S
#WHITE SWAN 5E  N/A         35  20  54  CALM    30.27S
#WILEY CITY 3W  N/A         31  14  49  CALM    30.23R
#ZILLAH DOT     N/A         38   7  27  S2      N/A
$$

WAZ028-031610-
LOWER COLUMBIA BASIN...WASHINGTON

CITY            SKY/WX      TMP DP  RH  WIND    PRES   REMARKS
PASCO           CLEAR       22  20  92  N6      30.27R
PROSSER AWOS    N/A         37  14  38  N1      30.28R
RICHLAND AWOS   CLEAR       27  19  71  N5      30.27S
#CONNELL 5N     N/A         23  18  81  E2      30.26R
#CONNELL 5NW    N/A         25  20  81  CALM    30.22R
#ELTOPIA        N/A         27  21  78  CALM    30.24R
#ELTOPIA 6NW    N/A         29  21  72  W3      29.20R
#KAHLOTUS       N/A         27  19  71  SE3     30.25S
#KENNEWICK 3S   N/A         28  21  75  CALM    30.27S
#PASCO-BROADMOORN/A         28  19  68  E1      30.20R
#PATERSON       N/A         34  22  61  NE2     30.25S
#PROSSER DOT    N/A         37  15  40  E9      N/A
#PROSSER        N/A         34  14  43  SE1     30.26R
#SAGEMOOR 2W    N/A         30  21  69  CALM    30.12S
#TOUCHET 2S     N/A         26  21  81  CALM    30.26R
#WEST PASCO     N/A         28  19  68  NE1     30.28S
$$

WAZ029-031610-
FOOTHILLS OF THE BLUES...WASHINGTON

CITY            SKY/WX      TMP DP  RH  WIND    PRES   REMARKS
WALLA WALLA AP  CLEAR       26  21  81  CALM    30.21R
#DAYTON SCHOOL  N/A         21  12  68  CALM    30.19R
#DELANEY DOT    N/A         22  18  84  CALM    N/A
#LOWDEN 2SE     N/A         25  22  88  CALM    30.21R
#PLEASANT VIEW 1N/A         25  19  78  CALM    30.29R
#PRESCOTT       N/A         23  20  88  CALM    30.24S
#SUDBURY        N/A         24  N/A N/A CALM    N/A
#WHITMAN COLLEGEN/A         27  23  85  S1      30.30R
#WAITSBURG 5S   N/A         25  22  88  CALM    30.34R
#WAITSBURG 8N   N/A         21   7  54  N7      30.03F
#WALLA WALLA 5E N/A         24  21  88  CALM    N/A
#WALLA WALLA U  N/A         28  24  85  CALM    30.26R
#WHITMAN MISSIONN/A         26  22  85  CALM    30.28R
$$

WAZ030-031610-
BLUE MOUNTAINS...WASHINGTON

CITY            SKY/WX      TMP DP  RH  WIND    PRES   REMARKS
#DIXIE 5SE      N/A         24  20  84  SW6     30.03R
#SKI BLUEWOOD   N/A         19  17  92  CALM    30.00R
$$

ORZ009-041-WAZ024-031610-
COLUMBIA RIVER GORGE

CITY            SKY/WX      TMP DP  RH  WIND    PRES   REMARKS
HOOD RIVER AP   PTCLDY      32  28  85  CALM    30.23S
THE DALLES AP   CLOUDY      40  21  46  E6      30.25S
#ARLINGTON AIRPON/A         35  18  49  SE5     30.01S
#ARLINGTON HS   N/A         34  18  51  W2      30.19S
#CELILO DOT     N/A         41  20  43  E1      N/A
#MARYHILL       N/A         38  19  46  CALM    N/A
#MOSIER 1S      N/A         33  13  43  E5      30.21S
#MURDOCK        N/A         42  25  51  E1      30.28R
#RUFUS DOT      N/A         42  16  34  SE13    N/A    WCI 35

$$

ORZ510-031610-
NORTH CENTRAL OREGON

CITY            SKY/WX      TMP DP  RH  WIND    PRES   REMARKS
#CHENOWITH 1W   N/A         34  16  47  SE10    N/A
#COW CYN RST AREN/A         28  12  50  NE1     N/A
#DUFUR 9E       N/A         32  14  47  E15     30.29R WCI 22
#GRASS VALLEY 1SN/A         30  19  63  E8      30.29R
#KENT DOT       N/A         30   8  39  E6      N/A
#MAUPIN SCHOOL  N/A         33  20  58  CALM    30.24S
#MORO SCHOOL    N/A         32  22  66  CALM    30.20R
#SHANIKO 5WSW   N/A         26   6  42  NE15    N/A    WCI 14
#SHANIKO 4NW    N/A         25  13  60  E12     30.10S WCI 14
#TYGH VALLEY 2NEN/A         30  19  63  CALM    30.25R
#WAPANITIA AIRPON/A         26  19  74  CALM    30.27S
#WASCO DOT      N/A         35  19  52  E7      N/A
#WASCO 5NE      N/A         32  19  58  CALM    30.26R
$$

ORZ511-031610-
CENTRAL OREGON

CITY            SKY/WX      TMP DP  RH  WIND    PRES   REMARKS
BEND AIRPORT    CLOUDY      30  16  55  NW5     30.12S
MADRAS AIRPORT  PTCLDY      25  16  68  N8      30.19S
PRINEVILLE AP   PTCLDY      28  14  55  CALM    30.13R
REDMOND AIRPORT CLOUDY      29  16  58  NW6     30.13S
#BEND 6E        N/A         29  15  55  CALM    30.21R
#BEND 1SW       N/A         29  21  72  N1      N/A
#BEND-AWBREY    N/A         29  20  69  N1      30.22R
#BEND-KIM LN    N/A         30  21  69  N1      30.09S
#CROOKED RVR RANN/A         31  16  53  E8      30.21S
#CULVER         N/A         27  15  60  N1      30.12S
#LAKE BILLY CHINN/A         31  -7  18  SE3     30.26S
#POWELL BUTTE 3EN/A         30  16  55  NE3     N/A
#POWELL BUTTE   N/A         29  17  60  S2      29.74S
#PRINEVILLE 3N  N/A         28  17  63  NE1     30.17R
#WARM SPRINGS   N/A         32  18  56  CALM    30.16S

$$


ORZ509-031610-
EAST SLOPES OF OREGON CASCADES

CITY            SKY/WX      TMP DP  RH  WIND    PRES   REMARKS
#BLUE BOX PASS  N/A         24  -23 11  CALM    N/A
#CAMP SHERMAN   N/A         30  18  60  CALM    30.27R
#LA PINE 4NW    N/A         28  21  75  CALM    30.22R
#MT BACHELOR-MIDN/A         13  11  91  E2      N/A
#SISTERS AIRPOR N/A         30  19  63  N2      30.17S
#SISTERS ODOT   N/A         31  N/A N/A CALM    N/A
#SISTERS 3N     N/A         29  11  46  N3      30.16S
#SUNRIVER       N/A         28  22  78  N1      30.08S
#TUMALO 3W      N/A         29  18  63  N3      30.09R
#WANOGA BUTTE D N/A         20  16  84  NE3     N/A

$$

ORZ044-031610-
LOWER COLUMBIA BASIN...OREGON

CITY            SKY/WX      TMP DP  RH  WIND    PRES   REMARKS
HERMISTON       CLEAR       30  20  66  N3      30.24R
#BOARDMAN 8SW   N/A         34  22  61  N2      30.25S
#IONE SCHOOL    N/A         30  19  63  E1      30.21R
#IRRIGON 4NW    N/A         36  24  61  E2      N/A
#UMATILLA SCHOOLN/A         27  26  96  CALM    30.33R
#UMATILLA       N/A         31  21  66  SW2     30.23R
$$

ORZ507-031610-
NORTHERN FOOTHILLS OF THE BLUES

CITY            SKY/WX      TMP DP  RH  WIND    PRES   REMARKS
PENDLETON AIRPT CLEAR       23  19  84  N7      30.19R
#ADAMS 3WNW     N/A         23  19  84  S3      30.24S
#ATHENA         N/A         25  22  88  CALM    30.27R
#HELIX SCHOOL   N/A         24  21  88  CALM    30.24S
#HELIX 3N       N/A         24  20  84  N2      30.13R
#HOLDMAN 6E     N/A         25  21  84  CALM    30.06R
#M-F FERNDALE   N/A         27  21  78  CALM    30.21R
#PENDLETON DNTN N/A         26  11  52  CALM    30.22R
#PDT AQUATIC CTRN/A         26  11  52  CALM    30.19S
#PENDLETON 5NE  N/A         24  19  81  CALM    30.15R
#PDT SUNRIDGE   N/A         23  19  84  CALM    30.23R
#PENDLETON 7NW  N/A         22  16  77  CALM    28.38F
#PILOT ROCK     N/A         26  16  65  CALM    30.20R
#TUTUILLA       N/A         22  18  84  S3      30.24R
#UMAPINE 2E     N/A         26  22  85  CALM    30.20R
#WESTON SCHOOL  N/A         24  18  77  CALM    30.16R

$$

ORZ508-031610-
SOUTHERN FOOTHILLS OF THE BLUES

CITY            SKY/WX      TMP DP  RH  WIND    PRES   REMARKS
LEXINGTON       CLEAR       27  21  78  E7      30.22R
#AJAX           N/A         31  11  43  N5      30.11R
#CONDON SCHOOL  N/A         28  18  66  CALM    30.10R
#CONDON 5W      N/A         26  13  57  N3      30.10R
#FOSSIL SCHOOL  N/A         28  18  66  CALM    30.11S
#HEPPNER EOC    N/A         25  17  71  E6      30.20R
#HEPPNER 4NE    N/A         21  14  74  E1      30.24R
#LEXINGTON 2SE  N/A         26  17  68  SE7     30.16F
#MIKKALO        N/A         31  16  53  SE1     30.20R
#OLEX 4N        N/A         35  19  52  NE5     30.21S
#RUGGS 5NE      N/A         20  13  74  CALM    30.27S
#RUGGS 2SW      N/A         24  16  71  SW7     30.27R

$$

ORZ502-503-031610-
BLUE MOUNTAINS

CITY            SKY/WX      TMP DP  RH  WIND    PRES   REMARKS
MEACHAM         MOCLDY      21  16  81  CALM    30.08R
#BATTLE MTN DOT N/A         20  20  100 N1      N/A
#HEPPNER 15SE   N/A         20  17  88  CALM    29.99R
#LADD CYN SMT   N/A         26  14  60  W12     N/A    WCI 15
#LADD CREEK ODOTN/A         27  18  68  N1      N/A
#LONG CREEK HS  N/A         19  18  96  CALM    30.05R
#N POWDER DOT   N/A         28  19  68  N10     N/A
#PIKES PEAK     N/A         23  21  92  SW6     27.99S
#TROY SCHOOL    N/A         28  25  88  CALM    30.04R
#UKIAH          N/A         21  17  84  CALM    30.28S
#WESTON 4E      N/A         23  21  92  SW1     30.17S
$$

ORZ505-031610-
JOHN DAY BASIN

CITY            SKY/WX      TMP DP  RH  WIND    PRES   REMARKS
JOHN DAY        CLEAR       27  16  63  E3      30.10S
#JOHN DAY KJDY  N/A         25  25  100 CALM    30.22R
#MITCHELL       N/A         26  19  74  CALM    30.26S
#MONUMENT HS    N/A         25  15  65  S2      30.17R
#MT. VERNON 5SE N/A         22  15  74  W2      30.04R
#SPRAY SCHOOL   N/A         28  N/A N/A CALM    N/A
#WINLOCK        N/A         23  15  71  NW3     30.20S
$$

ORZ506-031610-
OCHOCO AND JOHN DAY HIGHLANDS

CITY            SKY/WX      TMP DP  RH  WIND    PRES   REMARKS
#BUCK CREEK DOT N/A         26  26  100 CALM    N/A
#HORSE RIDGE DO N/A         28  22  78  NW3     N/A
#KEYES SMT DOT  N/A         21  11  65  CALM    N/A
#PAULINA SCHOOL N/A         47  42  83  NW1     30.06S
#PINE MTN OBS   N/A         19  17  92  CALM    N/A
#SENECA         N/A         17  N/A N/A N1      N/A
#SENECA 9NW     N/A         15  12  88  CALM    30.19R
$$

ORZ049-031610-
GRANDE RONDE VALLEY

CITY            SKY/WX      TMP DP  RH  WIND    PRES   REMARKS
LA GRANDE       CLEAR       28  14  55  N12     30.09R WCI 18
#COVE           N/A         22  19  88  CALM    30.09S
#COVE SCHOOL    N/A         23  18  81  CALM    30.06R
#ELGIN 3N       N/A         19  11  70  CALM    30.07R
#ELGIN 1E       N/A         24  18  77  NE1     N/A
#IMBLER SCHOOL  N/A         26  19  74  NW3     30.06R
#ISLAND CITY 4N N/A         33  31  92  CALM    30.19S
#LADD CYN DOT   N/A         29  17  60  W12     N/A    WCI 19
#UNION 1S       N/A         27  20  74  N6      30.10R
$$

ORZ050-031610-
WALLOWA COUNTY

CITY            SKY/WX      TMP DP  RH  WIND    PRES   REMARKS
#ENTERPRISE HS  N/A         23  19  84  CALM    30.05R
#IMNAHA SCHOOL  N/A         34  31  89  N3      30.08R
#IMNAHA 10S     N/A         30  26  85  CALM    30.03S
#JOSEPH 3N      N/A         21  17  84  CALM    30.04R
#JOSEPH 3W      N/A         23  13  65  CALM    29.84R
#LOSTINE        N/A         22  18  84  CALM    29.98R
#MT HOWARD 8000 N/A         10   7  87  CALM    29.75R
#PROMISE 1S     N/A         25  18  74  CALM    30.29R
#SHEEP RDG 7000 N/A         12  10  91  CALM    30.17R
#WALLOWA SCHOOL N/A         27  20  74  CALM    31.16R



$$



USA.gov is the U.S. government's official web portal to all federal, state and local government web resources and services.